Project,Study,Ord_Occ,Event_Num,Cast_ID,Date_Time_UTC,Date_Time_PST,Lat_Dec,Lon_Dec,Sta_ID,Line,Sta,Depth,Pressure,PrQ,Temp1,Temp1Q,Temp2,Temp2Q,TempAve,Salt1,Salt1Q,Salt1_Corr,Salt2,Salt2Q,Salt2_Corr,SaltAve_Corr,Ox1,Ox1Q,Ox1_CruiseCorr,Ox1_StaCorr,Ox2,Ox2Q,Ox2_CruiseCorr,Ox2_StaCorr,OxAve_StaCorr,Ox1uM,Ox1uM_CruiseCorr,Ox1uM_StaCorr,Ox2uM,Ox2uM_CruiseCorr,Ox2uM_StaCorr,OxAveuM_StaCorr,FluorV,FluorQ,EstChl_CruiseCorr,EstChl_StaCorr,ISUSV,ISUSQ,EstNO3_CruiseCorr,EstNO3_StaCorr,SigThetaTS1,SigThetaTS1Q,SigThetaTS2,SigThetaTS2Q,BAT,XMiss,TransQ,pH,pHQ,SPAR,SPARQ,PAR,PARQ,PoT1,PoT2,DynHt,SVA,OxSat1,OxSat2,BTL_Depth,BTL_Temp,SaltB,OxB,OxBuM,Chl-a,Phaeo,NO3,NO2,NH4,PO4,SIL
CalCOFI,2105SH,024,,2105_024d,09-May-2021 07:04:16,08-May-2021 23:04:16,33.48582,-117.77060,090.0 028.0,090.0,028.0,3.000,3.021,,17.9552,,17.9284,,17.9418,33.6631,,33.6643,33.6678,,33.6697,33.6670,7.0275,,7.4155,,7.1252,,7.4397,,,306.416,322.8261,323.8419,310.670,336.0586,324.5817,324.2118,0.3003,,1.8560,3.3723,3.2721,,0.0000,,24.2594,,24.2696,,,,,,,,,,,17.9546,17.9278,-0.0010,365.418,129.687,131.427,3,18.070,33.6520,7.043,307.10,2.600,0.361,0.01,0.026,0.00,0.14,4.00
CalCOFI,2105SH,024,,2105_024d,09-May-2021 07:04:28,08-May-2021 23:04:28,33.48585,-117.77060,090.0 028.0,090.0,028.0,4.000,4.029,,18.0531,,18.0718,,18.0625,33.6510,,33.6522,33.6497,,33.6516,33.6519,6.7360,,7.1106,,6.8011,,7.1040,,,293.714,309.5474,310.4769,296.554,322.3404,309.7429,310.1099,0.1694,,1.0015,1.7148,3.2471,,0.0000,,24.2263,,24.2207,,,,,,,,,,,18.0525,18.0712,0.0033,368.612,124.527,125.774,,,,,,,,,,,,
CalCOFI,2105SH,024,,2105_024d,09-May-2021 07:04:30,08-May-2021 23:04:30,33.48586,-117.77060,090.0 028.0,090.0,028.0,5.000,5.036,,18.0826,,18.0809,,18.0818,33.6456,,33.6468,33.6460,,33.6479,33.6474,6.9808,,7.3666,,7.2495,,7.5684,,,304.394,320.7123,321.7144,316.110,333.8749,330.3002,326.0073,0.1387,,0.7892,1.3260,3.2548,,0.0000,,24.2149,,24.2157,,,,,,,,,,,18.0818,18.0801,0.0070,369.728,129.121,134.087,,,,,,,,,,,,
CalCOFI,2105SH,024,,2105_024d,09-May-2021 07:04:32,08-May-2021 23:04:32,33.48586,-117.77060,090.0 028.0,090.0,028.0,6.000,6.043,,18.0791,,18.0793,,18.0792,33.6560,,33.6572,33.6574,,33.6593,33.6583,7.2981,,7.6985,,7.3937,,7.7178,,,318.222,335.1681,336.2641,322.392,348.8091,336.9039,336.5840,0.1579,,0.9225,1.5692,3.2594,,0.0000,,24.2238,,24.2248,,,,,,,,,,,18.0781,18.0783,0.0107,368.920,134.988,136.758,,,,,,,,,,,,
CalCOFI,2105SH,024,,2105_024d,09-May-2021 07:04:34,08-May-2021 23:04:34,33.48586,-117.77060,090.0 028.0,090.0,028.0,7.000,7.050,,17.9870,,17.9801,,17.9836,33.6868,,33.6880,33.6849,,33.6868,33.6874,7.2494,,7.6475,,7.2709,,7.5906,,,316.088,332.9372,334.0187,317.025,346.5044,331.2621,332.6404,0.2599,,1.6011,2.8607,3.2591,,0.0000,,24.2700,,24.2702,,,,,,,,,,,17.9859,17.9789,0.0144,364.553,133.879,134.257,,,,,,,,,,,,
CalCOFI,2105SH,024,,2105_024d,09-May-2021 07:04:35,08-May-2021 23:04:35,33.48586,-117.77060,090.0 028.0,090.0,028.0,8.000,8.057,,17.7965,,17.7871,,17.7918,33.6984,,33.6996,33.6883,,33.6902,33.6949,7.1401,,7.5332,,7.0996,,7.4132,,,311.305,327.9370,328.9861,309.541,341.3388,323.3949,326.1905,0.3696,,2.2751,4.2498,3.2559,,0.0000,,24.3252,,24.3198,,,,,,,,,,,17.7952,17.7858,0.0181,359.322,131.395,130.618,,,,,,,,,,,,
CalCOFI,2105SH,024,,2105_024d,09-May-2021 07:04:36,08-May-2021 23:04:36,33.48586,-117.77060,090.0 028.0,090.0,028.0,9.000,9.064,,17.5429,,17.5394,,17.5412,33.6938,,33.6950,33.6812,,33.6831,33.6891,6.8771,,7.2582,,6.8135,,7.1168,,,299.821,315.9317,316.9027,297.048,328.9360,310.2622,313.5825,0.5684,,3.3496,6.7671,3.2458,,0.0000,,24.3830,,24.3742,,,,,,,,,,,17.5414,17.5379,0.0217,353.843,125.942,124.759,,,,,,,,,,,,
CalCOFI,2105SH,024,,2105_024d,09-May-2021 07:04:38,08-May-2021 23:04:38,33.48588,-117.77060,090.0 028.0,090.0,028.0,10.000,10.072,,17.3116,,17.3120,,17.3118,33.6881,,33.6893,33.6717,,33.6736,33.6815,6.6003,,6.9687,,6.6493,,6.9467,,,287.739,303.3012,304.1901,289.877,315.8874,302.7241,303.4571,0.6867,,3.8991,8.2651,3.2240,,0.0000,,24.4340,,24.4214,,,,,,,,,,,17.3100,17.3104,0.0252,349.015,120.333,121.214,,,,,,,,,,,,
CalCOFI,2105SH,024,,2105_024d,09-May-2021 07:04:39,08-May-2021 23:04:39,33.48588,-117.77060,090.0 028.0,090.0,028.0,11.000,11.079,,16.7735,,16.7636,,16.7686,33.6751,,33.6763,33.6272,,33.6291,33.6527,6.6270,,6.9966,,6.6770,,6.9754,,,288.869,304.4825,305.3791,291.059,317.1078,303.9666,304.6729,0.7228,,4.0534,8.7222,3.1918,,0.0000,,24.5507,,24.5163,,,,,,,,,,,16.7717,16.7618,0.0287,337.922,119.561,120.408,11,17.177,,,323.82,8.855,0.842,0.17,0.00,0.05,0.30,7.27
CalCOFI,2105SH,024,,2105_024d,09-May-2021 07:04:41,08-May-2021 23:04:41,33.48588,-117.77060,090.0 028.0,090.0,028.0,12.000,12.086,,16.1344,,16.1098,,16.1221,33.6238,,33.6250,33.5966,,33.5985,33.6118,6.5900,,6.9579,,6.4172,,6.7063,,,287.226,302.7649,303.6503,279.699,315.3334,292.0249,297.8376,0.5994,,3.5001,7.1597,3.1461,,0.0000,,24.6590,,24.6438,,,,,,,,,,,16.1325,16.1079,0.0320,327.624,117.393,114.243,,,,,,,,,,,,
CalCOFI,2105SH,024,,2105_024d,09-May-2021 07:04:42,08-May-2021 23:04:42,33.48588,-117.77060,090.0 028.0,090.0,028.0,13.000,13.093,,15.8229,,15.8541,,15.8385,33.6249,,33.6261,33.5940,,33.5959,33.6110,6.0416,,6.3844,,5.8630,,6.1323,,,263.309,277.7620,278.4850,255.530,289.5030,266.6184,272.5517,0.5730,,3.3723,6.8254,3.0861,,0.0000,,24.7304,,24.6996,,,,,,,,,,,15.8209,15.8521,0.0353,320.857,106.975,103.854,,,,,,,,,,,,
CalCOFI,2105SH,024,,2105_024d,09-May-2021 07:04:43,08-May-2021 23:04:43,33.48588,-117.77060,090.0 028.0,090.0,028.0,14.000,14.100,,15.6107,,15.6009,,15.6058,33.6420,,33.6432,33.6234,,33.6253,33.6343,5.5143,,5.8330,,5.4300,,5.6838,,,240.310,253.7189,254.2856,236.639,264.6640,246.7602,250.5229,0.5602,,3.3091,6.6633,3.0146,,0.0000,,24.7911,,24.7790,,,,,,,,,,,15.6086,15.5987,0.0385,315.101,97.236,95.719,,,,,,,,,,,,
CalCOFI,2105SH,024,,2105_024d,09-May-2021 07:04:45,08-May-2021 23:04:45,33.48589,-117.77060,090.0 028.0,090.0,028.0,15.000,15.108,,15.3562,,15.3564,,15.3563,33.6656,,33.6668,33.6432,,33.6451,33.6560,5.1347,,5.4360,,5.0199,,5.2590,,,223.751,236.4081,236.8623,218.752,246.7802,227.9573,232.4098,0.5230,,3.1210,6.1922,2.9295,,0.0000,,24.8658,,24.8484,,,,,,,,,,,15.3540,15.3541,0.0416,308.019,90.102,88.076,,,,,,,,,,,,
CalCOFI,2105SH,024,,2105_024d,09-May-2021 07:04:46,08-May-2021 23:04:46,33.48590,-117.77060,090.0 028.0,090.0,028.0,16.000,16.115,,15.1969,,15.1657,,15.1813,33.6736,,33.6748,33.6519,,33.6538,33.6643,4.7472,,5.0307,,4.7091,,4.9371,,,206.858,218.7482,219.0876,205.201,228.5357,213.7125,216.4001,0.4769,,2.8786,5.6085,2.8350,,0.0000,,24.9070,,24.8971,,,,,,,,,,,15.1945,15.1633,0.0447,304.119,83.043,82.315,,,,,,,,,,,,
CalCOFI,2105SH,024,,2105_024d,09-May-2021 07:04:47,08-May-2021 23:04:47,33.48590,-117.77060,090.0 028.0,090.0,028.0,17.000,17.122,,14.8125,,14.7908,,14.8017,33.6922,,33.6934,33.6461,,33.6480,33.6707,4.5678,,4.8431,,4.7205,,4.9489,,,199.023,210.5574,210.8437,205.681,220.0739,214.2171,212.5304,0.4483,,2.7232,5.2464,2.7467,,0.0000,,25.0047,,24.9738,,,,,,,,,,,14.8100,14.7883,0.0477,294.841,79.301,81.889,,,,,,,,,,,,
CalCOFI,2105SH,024,,2105_024d,09-May-2021 07:04:49,08-May-2021 23:04:49,33.48590,-117.77060,090.0 028.0,090.0,028.0,18.000,18.129,,14.0786,,14.0767,,14.0777,33.6894,,33.6906,33.6502,,33.6521,33.6714,4.7878,,5.0732,,5.0583,,5.2988,,,208.575,220.5431,220.8943,220.366,230.3901,229.6539,225.2741,0.5439,,3.2275,6.4569,2.6634,,0.0000,,25.1585,,25.1286,,,,,,,,,,,14.0761,14.0741,0.0506,280.217,81.899,86.502,,,,,,,,,,,,
CalCOFI,2105SH,024,,2105_024d,09-May-2021 07:04:50,08-May-2021 23:04:50,33.48590,-117.77060,090.0 028.0,090.0,028.0,19.000,19.137,,13.9235,,13.9454,,13.9345,33.6628,,33.6640,33.6397,,33.6416,33.6528,5.0026,,5.2978,,5.1204,,5.3631,,,217.932,230.3249,230.7396,223.066,240.4957,232.4922,231.6159,0.5696,,3.3556,6.7823,2.5816,,0.0000,,25.1703,,25.1479,,,,,,,,,,,13.9208,13.9426,0.0534,279.119,85.294,87.329,,,,,,,,,,,,
CalCOFI,2105SH,024,,2105_024d,09-May-2021 07:04:51,08-May-2021 23:04:51,33.48590,-117.77060,090.0 028.0,090.0,028.0,20.000,20.144,,13.7684,,13.7698,,13.7691,33.6385,,33.6397,33.6107,,33.6126,33.6262,4.9260,,5.2177,,4.9661,,5.2033,,,214.592,226.8333,227.2253,216.343,236.8885,225.4250,226.3252,0.5043,,3.0239,5.9555,2.5033,,0.0000,,25.1835,,25.1617,,,,,,,,,,,13.7656,13.7670,0.0562,277.880,83.712,84.381,,,,,,,,,,,,
CalCOFI,2105SH,024,,2105_024d,09-May-2021 07:04:52,08-May-2021 23:04:52,33.48591,-117.77060,090.0 028.0,090.0,028.0,21.000,21.151,,13.5314,,13.5273,,13.5294,33.6370,,33.6382,33.6143,,33.6162,33.6272,4.8099,,5.0963,,4.8450,,5.0779,,,209.522,221.5331,221.8907,211.055,231.4128,219.8662,220.8785,0.3836,,2.3570,4.4271,2.4262,,0.0000,,25.2309,,25.2141,,,,,,,,,,,13.5285,13.5244,0.0590,273.394,81.343,81.918,,,,,,,,,,,,
CalCOFI,2105SH,024,,2105_024d,09-May-2021 07:04:54,08-May-2021 23:04:54,33.48592,-117.77060,090.0 028.0,090.0,028.0,22.000,22.158,,13.4480,,13.4484,,13.4482,33.6360,,33.6372,33.6194,,33.6213,33.6293,4.6328,,4.9111,,4.5823,,4.8057,,,201.808,213.4689,213.7741,199.608,223.0817,207.8331,210.8036,0.3497,,2.1571,3.9978,2.3523,,0.0000,,25.2471,,25.2341,,,,,,,,,,,13.4450,13.4453,0.0618,271.880,78.215,77.354,,,,,,,,,,,,
CalCOFI,2105SH,024,,2105_024d,09-May-2021 07:04:55,08-May-2021 23:04:55,33.48592,-117.77060,090.0 028.0,090.0,028.0,23.000,23.166,,13.4259,,13.4260,,13.4260,33.6439,,33.6451,33.6312,,33.6331,33.6391,4.2356,,4.4957,,4.1096,,4.3161,,,184.500,195.3751,195.5627,179.013,204.3890,186.1836,190.8732,0.3285,,2.0293,3.7294,2.2851,,0.0000,,25.2577,,25.2478,,,,,,,,,,,13.4227,13.4228,0.0645,270.895,71.479,69.347,,,,,,,,,,,,
CalCOFI,2105SH,024,,2105_024d,09-May-2021 07:04:57,08-May-2021 23:04:57,33.48592,-117.77060,090.0 028.0,090.0,028.0,24.000,24.173,,13.3848,,13.3838,,13.3843,33.6615,,33.6627,33.6489,,33.6508,33.6568,3.9109,,4.1561,,3.9811,,4.1830,,,170.356,180.5890,180.6805,173.413,189.1135,180.2969,180.4887,0.3042,,1.8802,3.4217,2.2293,,0.0000,,25.2796,,25.2701,,,,,,,,,,,13.3815,13.3804,0.0672,268.834,65.952,67.128,,,,,,,,,,,,
CalCOFI,2105SH,024,,2105_024d,09-May-2021 07:04:58,08-May-2021 23:04:58,33.48592,-117.77060,090.0 028.0,090.0,028.0,25.000,25.180,,13.2981,,13.2955,,13.2968,33.6809,,33.6821,33.6664,,33.6683,33.6752,3.8991,,4.1438,,3.9982,,4.2007,,,169.836,180.0454,180.1333,174.154,188.5519,181.0758,180.6046,0.2452,,1.5064,2.6746,2.1831,,0.0000,,25.3122,,25.3014,,,,,,,,,,,13.2947,13.2921,0.0699,265.767,65.644,67.302,,,,,,,,,,,,
CalCOFI,2105SH,024,,2105_024d,09-May-2021 07:04:59,08-May-2021 23:04:59,33.48593,-117.77060,090.0 028.0,090.0,028.0,26.000,26.187,,13.2069,,13.2059,,13.2064,33.6772,,33.6784,33.6645,,33.6664,33.6724,3.9027,,4.1475,,3.9968,,4.1993,,,169.991,180.2074,180.2964,174.087,188.7193,181.0054,180.6509,0.2107,,1.2800,2.2377,2.1363,,0.0000,,25.3276,,25.3180,,,,,,,,,,,13.2033,13.2023,0.0726,264.317,65.580,67.153,,,,,,,,,,,,
CalCOFI,2105SH,024,,2105_024d,09-May-2021 07:05:01,08-May-2021 23:05:01,33.48594,-117.77060,090.0 028.0,090.0,028.0,27.000,27.195,,13.1512,,13.1499,,13.1506,33.6753,,33.6765,33.6639,,33.6658,33.6712,3.8701,,4.1135,,3.9694,,4.1709,,,168.568,178.7198,178.7992,172.896,187.1824,179.7534,179.2763,0.2209,,1.3475,2.3669,2.0863,,0.0000,,25.3374,,25.3288,,,,,,,,,,,13.1475,13.1463,0.0752,263.417,64.957,66.617,,,,,,,,,,,,
CalCOFI,2105SH,024,,2105_024d,09-May-2021 07:05:02,08-May-2021 23:05:02,33.48594,-117.77060,090.0 028.0,090.0,028.0,28.000,28.202,,13.0635,,13.0623,,13.0629,33.6713,,33.6725,33.6593,,33.6612,33.6669,3.8132,,4.0539,,3.8680,,4.0659,,,166.089,176.1282,176.1908,168.474,184.5051,175.1050,175.6479,0.2417,,1.4837,2.6303,2.0421,,0.0000,,25.3517,,25.3427,,,,,,,,,,,13.0597,13.0585,0.0779,262.076,63.885,64.796,,,,,,,,,,,,
CalCOFI,2105SH,024,,2105_024d,09-May-2021 07:05:04,08-May-2021 23:05:04,33.48594,-117.77061,090.0 028.0,090.0,028.0,29.000,29.209,,12.9446,,12.9433,,12.9440,33.6691,,33.6703,33.6549,,33.6568,33.6636,3.7439,,3.9815,,3.7789,,3.9736,,,163.063,172.9649,173.0068,164.592,181.2370,171.0242,172.0155,0.2316,,1.4178,2.5024,2.0001,,0.0000,,25.3736,,25.3629,,,,,,,,,,,12.9407,12.9394,0.0805,260.015,62.569,63.148,,,,,,,,,,,,
CalCOFI,2105SH,024,,2105_024d,09-May-2021 07:05:05,08-May-2021 23:05:05,33.48594,-117.77060,090.0 028.0,090.0,028.0,30.000,30.216,,12.8062,,12.8061,,12.8062,33.6671,,33.6683,33.6560,,33.6579,33.6631,3.6114,,3.8429,,3.7286,,3.9215,,,157.291,166.9308,166.9336,162.398,175.0032,168.7179,167.8258,0.2030,,1.2287,2.1402,1.9522,,0.0000,,25.3994,,25.3908,,,,,,,,,,,12.8021,12.8020,0.0831,257.583,60.182,62.130,30,12.979,,,167.43,2.823,0.547,6.48,0.159,0.31,1.00,14.68
CalCOFI,2105SH,024,,2105_024d,09-May-2021 07:05:07,08-May-2021 23:05:07,33.48594,-117.77060,090.0 028.0,090.0,028.0,31.000,31.224,,12.6252,,12.6270,,12.6261,33.6638,,33.6650,33.6481,,33.6500,33.6575,3.7722,,4.0111,,3.9223,,4.1221,,,164.288,174.2455,174.2958,170.829,182.5600,177.5806,175.9382,0.1987,,1.1999,2.0858,1.9131,,0.0000,,25.4322,,25.4198,,,,,,,,,,,12.6211,12.6228,0.0857,254.475,62.623,65.112,,,,,,,,,,,,
CalCOFI,2105SH,024,,2105_024d,09-May-2021 07:05:09,08-May-2021 23:05:09,33.48596,-117.77062,090.0 028.0,090.0,028.0,32.000,32.231,,12.5024,,12.5008,,12.5016,33.6463,,33.6475,33.6328,,33.6347,33.6411,3.8423,,4.0844,,3.9129,,4.1124,,,167.339,177.4350,177.5060,170.417,185.8551,177.1475,177.3268,0.2166,,1.3191,2.3125,1.8903,,0.0000,,25.4426,,25.4324,,,,,,,,,,,12.4981,12.4966,0.0882,253.509,63.618,64.781,,,,,,,,,,,,
CalCOFI,2105SH,024,,2105_024d,09-May-2021 07:05:10,08-May-2021 23:05:10,33.48596,-117.77062,090.0 028.0,090.0,028.0,33.000,33.238,,12.3476,,12.3415,,12.3446,33.6364,,33.6376,33.6184,,33.6203,33.6290,3.7716,,4.0104,,3.8128,,4.0087,,,164.256,174.2120,174.2621,166.051,182.5254,172.5579,173.4100,0.2260,,1.3811,2.4315,1.8751,,0.0000,,25.4647,,25.4519,,,,,,,,,,,12.3433,12.3372,0.0908,251.420,62.243,62.907,,,,,,,,,,,,
CalCOFI,2105SH,024,,2105_024d,09-May-2021 07:05:12,08-May-2021 23:05:12,33.48596,-117.77062,090.0 028.0,090.0,028.0,34.000,34.246,,12.1177,,12.1139,,12.1158,33.6305,,33.6317,33.6164,,33.6183,33.6250,3.7113,,3.9474,,3.7898,,3.9849,,,161.625,171.4616,171.4938,165.043,179.6840,171.4983,171.4961,0.2149,,1.3079,2.2909,1.8598,,0.0000,,25.5041,,25.4938,,,,,,,,,,,12.1132,12.1095,0.0933,247.691,60.952,62.230,,,,,,,,,,,,
CalCOFI,2105SH,024,,2105_024d,09-May-2021 07:05:14,08-May-2021 23:05:14,33.48596,-117.77062,090.0 028.0,090.0,028.0,35.000,35.253,,12.0371,,12.0361,,12.0366,33.6286,,33.6298,33.6196,,33.6215,33.6257,3.6810,,3.9157,,3.7414,,3.9347,,,160.302,170.0785,170.1017,162.934,178.2551,169.2813,169.6915,0.2291,,1.4014,2.4707,1.8389,,0.0000,,25.5179,,25.5111,,,,,,,,,,,12.0326,12.0316,0.0958,246.397,60.351,61.337,,,,,,,,,,,,
CalCOFI,2105SH,024,,2105_024d,09-May-2021 07:05:16,08-May-2021 23:05:16,33.48597,-117.77062,090.0 028.0,090.0,028.0,36.000,36.260,,12.0096,,12.0080,,12.0088,33.6294,,33.6306,33.6194,,33.6213,33.6260,3.5039,,3.7305,,3.4800,,3.6640,,,152.591,162.0174,161.9883,151.552,169.9272,157.3165,159.6524,0.2446,,1.5025,2.6670,1.8183,,0.0000,,25.5237,,25.5163,,,,,,,,,,,12.0050,12.0034,0.0983,245.870,57.416,57.019,,,,,,,,,,,,
CalCOFI,2105SH,024,,2105_024d,09-May-2021 07:05:17,08-May-2021 23:05:17,33.48598,-117.77062,090.0 028.0,090.0,028.0,37.000,37.268,,11.7791,,11.7778,,11.7785,33.6558,,33.6570,33.6451,,33.6470,33.6520,3.3478,,3.5672,,3.4157,,3.5974,,,145.783,154.9003,154.8249,148.742,162.5745,154.3627,154.5938,0.2396,,1.4700,2.6037,1.7990,,0.0000,,25.5874,,25.5794,,,,,,,,,,,11.7744,11.7731,0.1007,239.822,54.602,55.704,,,,,,,,,,,,
CalCOFI,2105SH,024,,2105_024d,09-May-2021 07:05:19,08-May-2021 23:05:19,33.48598,-117.77062,090.0 028.0,090.0,028.0,38.000,38.275,,11.6823,,11.6825,,11.6824,33.6681,,33.6693,33.6593,,33.6612,33.6653,3.3488,,3.5683,,3.4217,,3.6036,,,145.823,154.9422,154.8670,148.996,162.6177,154.6297,154.7484,0.0945,,0.4757,0.7664,1.7752,,0.0000,,25.6151,,25.6082,,,,,,,,,,,11.6775,11.6777,0.1031,237.215,54.510,55.693,,,,,,,,,,,,
CalCOFI,2105SH,024,,2105_024d,09-May-2021 07:05:21,08-May-2021 23:05:21,33.48598,-117.77062,090.0 028.0,090.0,028.0,39.000,39.282,,11.6652,,11.6649,,11.6651,33.6658,,33.6670,33.6599,,33.6618,33.6644,3.3404,,3.5595,,3.4113,,3.5928,,,145.455,154.5575,154.4798,148.544,162.2203,154.1545,154.3172,0.0789,,0.3628,0.5688,1.7497,,0.0000,,25.6165,,25.6119,,,,,,,,,,,11.6603,11.6599,0.1055,237.104,54.352,55.504,,,,,,,,,,,,
CalCOFI,2105SH,024,,2105_024d,09-May-2021 07:05:23,08-May-2021 23:05:23,33.48600,-117.77062,090.0 028.0,090.0,028.0,40.000,40.290,,11.6325,,11.6315,,11.6320,33.6663,,33.6675,33.6605,,33.6624,33.6650,3.3190,,3.5371,,3.3956,,3.5766,,,144.521,153.5811,153.4971,147.860,161.2116,153.4355,153.4663,0.0776,,0.3533,0.5524,1.7284,,0.0000,,25.6229,,25.6186,,,,,,,,,,,11.6274,11.6264,0.1079,236.513,53.967,55.210,,,,,,,,,,,,
CalCOFI,2105SH,024,,2105_024d,09-May-2021 07:05:25,08-May-2021 23:05:25,33.48600,-117.77062,090.0 028.0,090.0,028.0,41.000,41.297,,11.6190,,11.6190,,11.6190,33.6666,,33.6678,33.6622,,33.6641,33.6660,3.3020,,3.5193,,3.3737,,3.5539,,,143.782,152.8085,152.7195,146.903,160.4135,152.4295,152.5745,0.0787,,0.3613,0.5663,1.7086,,0.0000,,25.6256,,25.6223,,,,,,,,,,,11.6139,11.6138,0.1103,236.281,53.676,54.839,,,,,,,,,,,,
CalCOFI,2105SH,024,,2105_024d,09-May-2021 07:05:26,08-May-2021 23:05:26,33.48600,-117.77063,090.0 028.0,090.0,028.0,42.000,42.304,,11.6073,,11.6086,,11.6080,33.6679,,33.6691,33.6640,,33.6659,33.6675,3.2721,,3.4881,,3.3114,,3.4893,,,142.482,151.4495,151.3517,144.192,159.0095,149.5797,150.4657,0.0720,,0.3124,0.4815,1.6890,,0.0000,,25.6289,,25.6256,,,,,,,,,,,11.6020,11.6033,0.1127,235.997,53.178,53.816,,,,,,,,,,,,
CalCOFI,2105SH,024,,2105_024d,09-May-2021 07:05:28,08-May-2021 23:05:28,33.48600,-117.77062,090.0 028.0,090.0,028.0,43.000,43.312,,11.5805,,11.5813,,11.5809,33.6684,,33.6696,33.6649,,33.6668,33.6682,3.1831,,3.3950,,3.2246,,3.3994,,,138.604,147.3954,147.2712,140.413,154.8212,145.6072,146.4392,0.0783,,0.3584,0.5612,1.6681,,0.0000,,25.6342,,25.6313,,,,,,,,,,,11.5751,11.5759,0.1150,235.509,51.702,52.376,,,,,,,,,,,,
CalCOFI,2105SH,024,,2105_024d,09-May-2021 07:05:31,08-May-2021 23:05:31,33.48600,-117.77064,090.0 028.0,090.0,028.0,44.000,44.319,,11.5146,,11.5134,,11.5140,33.6752,,33.6764,33.6677,,33.6696,33.6730,3.1354,,3.3451,,3.1993,,3.3732,,,136.524,145.2210,145.0827,139.306,152.5748,144.4435,144.7631,0.0845,,0.4034,0.6397,1.6477,,0.0000,,25.6517,,25.6460,,,,,,,,,,,11.5091,11.5079,0.1174,233.870,50.858,51.890,,,,,,,,,,,,
CalCOFI,2105SH,024,,2105_024d,09-May-2021 07:05:32,08-May-2021 23:05:32,33.48602,-117.77064,090.0 028.0,090.0,028.0,45.000,45.326,,11.3837,,11.3835,,11.3836,33.6831,,33.6843,33.6778,,33.6797,33.6820,3.1177,,3.3266,,3.1734,,3.3464,,,135.752,144.4139,144.2704,138.176,151.7410,143.2557,143.7631,0.0676,,0.2802,0.4257,1.6348,,0.0000,,25.6818,,25.6777,,,,,,,,,,,11.3781,11.3779,0.1197,231.020,50.434,51.333,,,,,,,,,,,,
CalCOFI,2105SH,024,,2105_024d,09-May-2021 07:05:34,08-May-2021 23:05:34,33.48602,-117.77064,090.0 028.0,090.0,028.0,46.000,46.334,,11.3477,,11.3471,,11.3474,33.6859,,33.6871,33.6812,,33.6831,33.6851,3.0630,,3.2694,,3.1176,,3.2886,,,133.366,141.9196,141.7599,135.745,149.1642,140.7002,141.2301,0.0586,,0.2141,0.3118,1.6221,,0.0000,,25.6906,,25.6870,,,,,,,,,,,11.3420,11.3414,0.1221,230.211,49.511,50.392,,,,,,,,,,,,
CalCOFI,2105SH,024,,2105_024d,09-May-2021 07:05:36,08-May-2021 23:05:36,33.48602,-117.77064,090.0 028.0,090.0,028.0,47.000,47.341,,11.3010,,11.3009,,11.3010,33.6902,,33.6914,33.6858,,33.6877,33.6896,3.0163,,3.2205,,3.0766,,3.2461,,,131.332,139.7933,139.6197,133.957,146.9674,138.8206,139.2202,0.0639,,0.2531,0.3789,1.6073,,0.0000,,25.7024,,25.6990,,,,,,,,,,,11.2952,11.2951,0.1244,229.106,48.710,49.681,,,,,,,,,,,,
CalCOFI,2105SH,024,,2105_024d,09-May-2021 07:05:38,08-May-2021 23:05:38,33.48602,-117.77064,090.0 028.0,090.0,028.0,48.000,48.348,,11.2218,,11.2258,,11.2238,33.6963,,33.6975,33.6915,,33.6934,33.6955,3.0120,,3.2160,,3.0747,,3.2442,,,131.142,139.5946,139.4198,133.875,146.7622,138.7344,139.0771,0.0593,,0.2192,0.3206,1.5905,,0.0000,,25.7215,,25.7170,,,,,,,,,,,11.2159,11.2199,0.1267,227.309,48.560,49.575,,,,,,,,,,,,
CalCOFI,2105SH,024,,2105_024d,09-May-2021 07:05:40,08-May-2021 23:05:40,33.48603,-117.77064,090.0 028.0,090.0,028.0,49.000,49.356,,11.1635,,11.1616,,11.1626,33.6987,,33.6999,33.6935,,33.6954,33.6977,2.9914,,3.1945,,3.0353,,3.2034,,,130.245,138.6569,138.4760,132.154,145.7935,136.9253,137.7007,0.0612,,0.2332,0.3447,1.5751,,0.0000,,25.7339,,25.7302,,,,,,,,,,,11.1575,11.1556,0.1290,226.144,48.169,48.872,,,,,,,,,,,,
CalCOFI,2105SH,024,,2105_024d,09-May-2021 07:05:42,08-May-2021 23:05:42,33.48604,-117.77064,090.0 028.0,090.0,028.0,50.000,50.363,,11.1028,,11.0998,,11.1013,33.7058,,33.7070,33.7023,,33.7042,33.7056,2.9533,,3.1547,,2.9966,,3.1633,,,128.585,136.9216,136.7293,130.469,144.0007,135.1541,135.9417,0.0638,,0.2523,0.3776,1.5622,,0.0000,,25.7504,,25.7482,,,,,,,,,,,11.0967,11.0937,0.1312,224.597,47.497,48.189,,,,,,,,,,,,
CalCOFI,2105SH,024,,2105_024d,09-May-2021 07:05:43,08-May-2021 23:05:43,33.48604,-117.77064,090.0 028.0,090.0,028.0,51.000,51.371,,11.0747,,11.0747,,11.0747,33.7099,,33.7111,33.7064,,33.7083,33.7097,2.8945,,3.0932,,2.9485,,3.1135,,,126.020,134.2401,134.0304,128.374,141.2305,132.9518,133.4911,0.0604,,0.2273,0.3346,1.5498,,0.0000,,25.7587,,25.7559,,,,,,,,,,,11.0685,11.0685,0.1335,223.834,46.523,47.391,,,,,,,,,,,,
CalCOFI,2105SH,024,,2105_024d,09-May-2021 07:06:04,08-May-2021 23:06:04,33.48609,-117.77065,090.0 028.0,090.0,028.0,52.000,52.378,,10.9771,,10.9771,,10.9771,33.7198,,33.7210,33.7186,,33.7205,33.7208,2.8782,,3.0761,,2.9316,,3.0960,,,125.312,133.5000,133.2855,127.634,140.4658,132.1739,132.7297,0.0614,,0.2347,0.3472,1.5090,,0.0000,,25.7838,,25.7829,,,,,,,,,,,10.9708,10.9708,0.1371,221.460,46.169,47.025,52,10.939,33.7152,3.011,131.09,0.304,0.375,18.91,0.402,0.77,1.64,19.67
CalCOFI,2105SH,024,,2105_024d,09-May-2021 07:07:37,08-May-2021 23:07:37,33.48629,-117.77067,090.0 028.0,090.0,028.0,53.000,53.386,,10.8961,,10.8979,,10.8970,33.7237,,33.7249,33.7240,,33.7259,33.7254,2.8817,,3.0798,,2.9095,,3.0731,,,125.458,133.6526,133.4391,126.669,140.6235,131.1595,132.2993,0.0556,,0.1919,0.2738,1.4763,,0.0000,,25.8013,,25.8013,,,,,,,,,,,10.8896,10.8913,0.1470,219.812,46.146,46.592,,,,,,,,,,,,
